Starlink 11605

operational
NORAD ID: 63134 Int'l Des: 2025-043 Owner: SPXS Country: US Constellation: starlink
LEOCIRCULAR

Über Starlink 11605

Beschreibung wird geladen...

Live-Position

3D-Globus wird geladen...

Nächste Überflüge

Höhenverlauf

Altitude vs Time

uPlot chart will show altitude changes over time

Zweizeiliger Elementsatz

1 63134U 25043C 25306.41888223 .00390908 00000-0 28884-2 0 9994
2 63134 42.9981 298.0536 0001161 321.6916 38.3870 15.71008526 39334
Epoch: 2. Nov. 2025 • Age: 15 hours

Aktueller Status

Höhe 360.1 km
Geschwindigkeit 7.69 km/s
Subsatellitenpunkt -22.11°S, 87.21°E
Startdatum 3. März 2025
Alter 0.6 years
Typ internet

Technische Details

Klassifizierung Payload
Masse 960.00 kg
Trockenmasse 910.00 kg
Gesamtmasse 960.00 kg
Länge 0.30 m
Durchmesser 4.10 m
Spannweite 29.00 m
Form Box + pan
Hersteller SPXS
Bus-Typ Starlink V2MD
Phasenstatus In Orbit
Besitzer/Staat SPXS/US

Große Konstellationen

Loading constellations...